Gwinner, ND

4:58 AM CDT on September 25, 2017 (GMT -0500)
Gwinner-melroe

Weather History for KGWR - October, 2013

Change the Weather History Date:

Sunday, October 6, 2013

  Actual Average (KP67) Record (KP67)
Temperature  
Mean Temperature 52 °F -  
Max Temperature 62 °F 67 °F 73 °F (1997)
Min Temperature 42 °F 39 °F 37 °F (1996)
Degree Days  
Heating Degree Days 13    
Growing Degree Days 2 (Base 50)    
Moisture  
Dew Point 41 °F    
Average Humidity 77    
Maximum Humidity 100    
Minimum Humidity 39    
Precipitation  
Precipitation 0.06 in - - ()
Sea Level Pressure  
Sea Level Pressure 29.90 in    
Wind  
Wind Speed 13 mph (NW)    
Max Wind Speed 18 mph    
Max Gust Speed 25 mph    
Visibility 8 miles    
Events      
Averages and records for this station are not official NWS values.
T = Trace of Precipitation, MM = Missing Value Source: NWS Daily Summary

Daily Weather History Graph

Daily Weather History Graph

Search for Another Location

Airport or City:

Trip Planner

Search our weather history database for the weather conditions in past years. The results will help you decide how hot, cold, wet, or windy it might be!

Date:

Astronomy

Oct. 06, 2013 Rise Set
Actual Time 7:35 AM CDT 7:00 PM CDT
Civil Twilight 7:05 AM CDT 7:30 PM CDT
Nautical Twilight 6:31 AM CDT 8:04 PM CDT
Astronomical Twilight 5:56 AM CDT 8:39 PM CDT
Moon 9:29 AM CDT (10/6) 7:51 PM CDT (10/6)
Length of Visible Light 12h 24m
Length of Day
11h 24m
Waxing Crescent, 3% of the Moon is Illuminated
Oct 6
Waxing Crescent
Oct 11
First Quarter
Oct 18
Full
Oct 26
Last Quarter
Nov 3
New

Hourly Weather History & Observations

Time (CDT) Temp. Windchill Dew Point Humidity Pressure Visibility Wind Dir Wind Speed Gust Speed Precip Events Conditions
12:15 AM 46.4 °F 40.7 °F 46.4 °F 100% 29.85 in 4.0 mi North 12.7 mph 18.4 mph 0.00 in   Overcast
12:35 AM 44.6 °F 37.8 °F 44.6 °F 100% 29.86 in 4.0 mi North 15.0 mph 21.9 mph 0.01 in   Overcast
12:55 AM 44.6 °F 38.8 °F 44.6 °F 100% 29.86 in 5.0 mi North 11.5 mph 19.6 mph 0.03 in   Overcast
1:15 AM 44.6 °F 38.4 °F 44.6 °F 100% 29.86 in 5.0 mi North 12.7 mph 19.6 mph 0.00 in   Overcast
1:35 AM 44.6 °F 37.8 °F 44.6 °F 100% 29.87 in 7.0 mi North 15.0 mph 19.6 mph 0.00 in   Overcast
1:55 AM 44.6 °F 37.8 °F 44.6 °F 100% 29.86 in 7.0 mi North 15.0 mph 21.9 mph 0.00 in   Overcast
2:15 AM 44.6 °F 37.8 °F 44.6 °F 100% 29.86 in 10.0 mi NNW 15.0 mph 19.6 mph 0.00 in   Overcast
2:35 AM 44.6 °F 38.4 °F 44.6 °F 100% 29.86 in 10.0 mi North 12.7 mph 19.6 mph 0.00 in   Overcast
2:55 AM 44.6 °F 39.2 °F 44.6 °F 100% 29.86 in 8.0 mi North 10.4 mph - 0.00 in   Overcast
3:15 AM 44.6 °F 38.8 °F 44.6 °F 100% 29.86 in 7.0 mi North 11.5 mph - 0.00 in   Overcast
3:35 AM 44.6 °F 38.4 °F 44.6 °F 100% 29.87 in 5.0 mi North 12.7 mph 19.6 mph 0.00 in   Overcast
3:55 AM 44.6 °F 38.1 °F 44.6 °F 100% 29.86 in 10.0 mi North 13.8 mph 19.6 mph 0.00 in   Overcast
4:15 AM 44.6 °F 38.1 °F 44.6 °F 100% 29.87 in 2.0 mi North 13.8 mph 20.7 mph 0.00 in   Overcast
4:35 AM 44.6 °F 39.7 °F 44.6 °F 100% 29.86 in 2.0 mi North 9.2 mph - 0.00 in   Overcast
4:55 AM 44.6 °F 38.4 °F 44.6 °F 100% 29.87 in 2.0 mi NNW 12.7 mph - 0.00 in   Overcast
5:15 AM 44.6 °F 38.1 °F 44.6 °F 100% 29.87 in 1.8 mi North 13.8 mph 24.2 mph 0.01 in   Overcast
5:35 AM 42.8 °F 34.8 °F 42.8 °F 100% 29.88 in 2.0 mi NNW 17.3 mph 24.2 mph 0.02 in   Overcast
5:55 AM 42.8 °F 34.5 °F 42.8 °F 100% 29.88 in 2.0 mi NNW 18.4 mph 23.0 mph 0.03 in   Overcast
6:15 AM 42.8 °F 35.1 °F 42.8 °F 100% 29.89 in 3.0 mi North 16.1 mph 25.3 mph 0.00 in   Overcast
6:35 AM 42.8 °F 35.8 °F 42.8 °F 100% 29.89 in 2.5 mi North 13.8 mph 20.7 mph 0.00 in   Overcast
6:55 AM 42.8 °F 36.2 °F 42.8 °F 100% 29.89 in 2.5 mi North 12.7 mph 20.7 mph 0.00 in   Overcast
7:15 AM 42.8 °F 35.4 °F 42.8 °F 100% 29.90 in 10.0 mi North 15.0 mph 19.6 mph 0.00 in   Overcast
7:35 AM 42.8 °F 35.4 °F 42.8 °F 100% 29.91 in 10.0 mi NNW 15.0 mph 19.6 mph 0.00 in   Overcast
7:55 AM 42.8 °F 35.4 °F 42.8 °F 100% 29.91 in 10.0 mi NNW 15.0 mph 24.2 mph 0.00 in   Overcast
8:15 AM 42.8 °F 34.8 °F 42.8 °F 100% 29.91 in 10.0 mi NNW 17.3 mph 21.9 mph 0.00 in   Overcast
8:35 AM 42.8 °F 35.4 °F 39.2 °F 87% 29.91 in 10.0 mi NNW 15.0 mph 21.9 mph 0.00 in   Scattered Clouds
8:55 AM 42.8 °F 35.8 °F 39.2 °F 87% 29.92 in 10.0 mi NNW 13.8 mph - 0.00 in   Clear
9:15 AM 42.8 °F 35.4 °F 39.2 °F 87% 29.92 in 10.0 mi NNW 15.0 mph 19.6 mph 0.00 in   Clear
9:35 AM 42.8 °F 35.8 °F 39.2 °F 87% 29.93 in 10.0 mi North 13.8 mph - 0.00 in   Clear
9:55 AM 44.6 °F 38.1 °F 39.2 °F 81% 29.93 in 10.0 mi NNW 13.8 mph 21.9 mph 0.00 in   Clear
10:15 AM 44.6 °F 37.8 °F 39.2 °F 81% 29.93 in 10.0 mi NNW 15.0 mph 19.6 mph 0.00 in   Clear
10:35 AM 46.4 °F 40.1 °F 39.2 °F 76% 29.93 in 10.0 mi NNW 15.0 mph - 0.00 in   Clear
10:55 AM 46.4 °F 39.8 °F 41.0 °F 81% 29.94 in 10.0 mi NNW 16.1 mph - 0.00 in   Clear
11:15 AM 48.2 °F - 39.2 °F 71% 29.94 in 10.0 mi NNW 15.0 mph 19.6 mph 0.00 in   Clear
11:35 AM 48.2 °F - 37.4 °F 66% 29.94 in 10.0 mi NNW 15.0 mph 20.7 mph 0.00 in   Clear
11:55 AM 50.0 °F - 35.6 °F 58% 29.94 in 10.0 mi NNW 13.8 mph 20.7 mph 0.00 in   Clear
12:15 PM 51.8 °F - 35.6 °F 54% 29.94 in 10.0 mi NNW 15.0 mph 23.0 mph 0.00 in   Clear
12:35 PM 51.8 °F - 35.6 °F 54% 29.94 in 10.0 mi NNW 12.7 mph - 0.00 in   Clear
12:55 PM 53.6 °F - 35.6 °F 51% 29.94 in 10.0 mi NNW 15.0 mph 19.6 mph 0.00 in   Clear
1:15 PM 53.6 °F - 35.6 °F 51% 29.93 in 10.0 mi NNW 12.7 mph 17.3 mph 0.00 in   Clear
1:35 PM 55.4 °F - 35.6 °F 47% 29.93 in 10.0 mi NW 13.8 mph 18.4 mph 0.00 in   Clear
1:55 PM 57.2 °F - 35.6 °F 44% 29.92 in 10.0 mi NNW 13.8 mph 17.3 mph 0.00 in   Clear
2:15 PM 57.2 °F - 35.6 °F 44% 29.91 in 10.0 mi NNW 13.8 mph 21.9 mph 0.00 in   Clear
2:35 PM 59.0 °F - 35.6 °F 42% 29.90 in 10.0 mi NNW 15.0 mph 21.9 mph 0.00 in   Clear
2:55 PM 60.8 °F - 37.4 °F 42% 29.90 in 9.0 mi NW 13.8 mph - 0.00 in   Clear
3:15 PM 60.8 °F - 37.4 °F 42% 29.90 in 9.0 mi NW 13.8 mph - 0.00 in   Clear
3:35 PM 60.8 °F - 37.4 °F 42% 29.90 in 10.0 mi NNW 12.7 mph 17.3 mph 0.00 in   Clear
3:55 PM 62.6 °F - 37.4 °F 39% 29.90 in 10.0 mi NW 11.5 mph - 0.00 in   Clear
4:15 PM 62.6 °F - 37.4 °F 39% 29.90 in 10.0 mi NW 11.5 mph 17.3 mph 0.00 in   Clear
4:35 PM 62.6 °F - 39.2 °F 42% 29.90 in 10.0 mi NNW 13.8 mph - 0.00 in   Clear
4:55 PM 62.6 °F - 39.2 °F 42% 29.90 in 10.0 mi NW 11.5 mph - 0.00 in   Clear
5:15 PM 62.6 °F - 39.2 °F 42% 29.91 in 10.0 mi NW 10.4 mph - 0.00 in   Clear
5:35 PM 62.6 °F - 39.2 °F 42% 29.91 in 10.0 mi WNW 8.1 mph - 0.00 in   Clear
5:55 PM 62.6 °F - 41.0 °F 45% 29.91 in 10.0 mi WNW 6.9 mph - 0.00 in   Clear
6:15 PM 62.6 °F - 41.0 °F 45% 29.91 in 10.0 mi WNW 5.8 mph - 0.00 in   Clear
6:35 PM 59.0 °F - 42.8 °F 55% 29.91 in 10.0 mi West 6.9 mph - 0.00 in   Clear
6:55 PM 55.4 °F - 44.6 °F 67% 29.91 in 10.0 mi West 6.9 mph - 0.00 in   Clear
7:15 PM 53.6 °F - 44.6 °F 72% 29.91 in 10.0 mi West 6.9 mph - 0.00 in   Clear
7:35 PM 51.8 °F - 44.6 °F 76% 29.91 in 10.0 mi West 9.2 mph - 0.00 in   Clear
7:55 PM 51.8 °F - 44.6 °F 76% 29.91 in 10.0 mi WSW 6.9 mph - 0.00 in   Clear
8:15 PM 48.2 °F - 44.6 °F 87% 29.91 in 10.0 mi WSW 8.1 mph - 0.00 in   Clear
8:35 PM 48.2 °F - 44.6 °F 87% 29.91 in 10.0 mi SW 6.9 mph - 0.00 in   Clear
8:55 PM 48.2 °F - 44.6 °F 87% 29.90 in 10.0 mi SW 8.1 mph - 0.00 in   Clear
9:15 PM 46.4 °F 42.4 °F 44.6 °F 93% 29.90 in 10.0 mi WSW 8.1 mph - 0.00 in   Clear
9:35 PM 46.4 °F 41.9 °F 44.6 °F 93% 29.90 in 10.0 mi WSW 9.2 mph - 0.00 in   Clear
9:55 PM 48.2 °F - 44.6 °F 87% 29.90 in 10.0 mi WSW 9.2 mph - 0.00 in   Clear
10:15 PM 50.0 °F - 42.8 °F 76% 29.89 in 10.0 mi West 12.7 mph - 0.00 in   Clear
10:35 PM 51.8 °F - 42.8 °F 71% 29.89 in 10.0 mi West 11.5 mph - 0.00 in   Clear
10:55 PM 51.8 °F - 42.8 °F 71% 29.89 in 10.0 mi West 12.7 mph - 0.00 in   Clear
11:15 PM 50.0 °F - 42.8 °F 76% 29.89 in 10.0 mi West 12.7 mph - 0.00 in   Clear
11:35 PM 48.2 °F - 42.8 °F 82% 29.89 in 10.0 mi West 12.7 mph - 0.00 in   Clear
11:55 PM 48.2 °F - 42.8 °F 82% 29.88 in 10.0 mi West 12.7 mph - 0.00 in   Clear